Weather in Klosters-Serneus

Switzerland     46°52′48″N   9°52′48″E
temp.,
°C
wind,
m/s
gust,
m/s
humid.,
%
clouds,
%
prec.,
mm/h
press.,
hPa
HPBL,
m
16 june, wed
wed1623:00+10ne1180100 0.0 102110
02:00+10ese1181100 0.0 102011
05:00+9se118096 0.0 101911
08:00+14ese1148100 0.0 1018190
11:00+17n1134100 0.0 10171034
14:00+19nw1133100 0.0 10161830
17:00+19nw2237100 0.0 10151786
20:00+16nw2270100 0.0 101648
17 june, thu
thu1723:00+12s228099 0.0 101713
02:00+11sse33796 0.0 101929
05:00+10se4380100 0.0 101830
08:00+14s226548 0.0 1018204
11:00+18wnw114742 0.0 10171311
14:00+21nw213879 0.0 10162558
17:00+21n224381 0.0 10151630
20:00+15w227494 1.1 101728
18 june, fri
fri1823:00+15sse227328 0.5 101721
02:00+12sse44821 0.5 101850
05:00+11sse33825 0.0 101933
08:00+14s22677 0.0 1018263
11:00+18wsw125184 0.0 10161252
14:00+20wsw2248100 0.9 10151695
17:00+14ese128366 4.6 1017111
20:00+13ne2288100 7.4 101964
19 june, sat
sat1923:00+13s1184100 0.4 102012
02:00+11ssw118659 0.4 102011
05:00+10s118749 0.0 102011
08:00+14n1176100 0.0 1021199
11:00+17n2263100 0.0 10201095
14:00+21nnw214556 0.1 10181897
17:00+22nw324233 0.0 10171961
20:00+18nnw227038 0.1 101724
20 june, sun
sun2023:00+15sse326952 0.4 101913
02:00+14se44706 0.4 101831
05:00+13se5474100 0.0 101844
08:00+16sse457091 0.0 1016193
11:00+21sse45445 0.0 1013975
14:00+24s5835100 0.0 10122524
17:00+22ssw4744100 0.0 10121946
20:00+19s33564 0.0 101255